Find Yaogan 30 hao 10 zu 03 xing

NORAD ID: 49029 Int'l Des: 2021-065 Owner: ZLZB Country: CN Constellation: yaogan operational
LEOCIRCULAR

Live Position

Loading 3D Globe...

About Yaogan 30 hao 10 zu 03 xing

Description loading...

Upcoming Passes

Passes for default location (London). Set your location on the main map for personalized predictions.

Altitude History

Loading altitude history...

Two-Line Element Set

1 49029U 21065D 26106.94715627 .00001331 00000-0 10074-3 0 9997
2 49029 34.9951 285.8145 0002842 86.2319 273.8714 15.02388850259441
Epoch: Apr 16, 2026 • Age: 16 hours

Current Status

Altitude 557.5 km
Velocity 7.59 km/s
Sub-Earth Point 29.65°N, 26.31°W
Launch Date Jul 19, 2021
Age 4.7 years
Type military

Technical Details

Classification Payload
Mass 500.00 kg
Dry Mass 500.00 kg
Total Mass 500.00 kg
Length 0.50 m
Diameter 0.50 m
Span 1.00 m
Shape Box + 2 Pan
Manufacturer SECM
Phase Status In Orbit
Owner/State ZLZB/CN

Most Searched